Meath Environmental Platform

Observations for Trim Patrick St

Time AQI Temp °C Hum % Pres Pa CO μg/m³ H₂S μg/m³ NO μg/m³ NO₂ μg/m³ O₃ μg/m³ SO₂ μg/m³ PM1 μg/m³ PM2.5 μg/m³ PM10 μg/m³
Friday 7 August 2026
12:52 2 26 36 68,947 0 0 2.1 5.98 57.36 7.22 2 8.06 8.86
12:51 2 25.9 38 68,963 0 0 2.02 11 91.1 7.63 2.86 9.56 10.51
12:49 2 25.8 38 68,937 0 1.1 1.8 12.36 85.99 7.46 2.86 9.5 10.45
12:48 2 25.7 38 68,922 0 0.44 1.65 9.95 70.76 7.16 2.86 8.74 9.61
12:47 2 25.7 39 68,906 0 7.73 1.54 11.16 103.75 8.9 2 8.7 9.57
12:46 2 25.8 38 68,914 0 4.75 1.35 12.12 97.42 7.99 2.86 8.71 9.59
12:45 2 25.8 38 68,926 0 5.25 1.49 10 98.62 8.9 2.86 8.73 9.61
12:44 2 25.9 38 68,939 0 5.83 1.49 11.51 109.8 8.64 2 8.71 9.59
12:40 2 26.2 37 68,961 0 0.25 1.58 11.2 96.08 8.63 3.71 9.61 10.57
12:39 2 26.2 37 68,955 0 0.38 1.74 10.45 101.67 8.93 2.86 10.4 11.44
12:32 1 26.2 36 68,987 0 0 1.66 9.76 73.41 7.43 2 8.06 8.87
12:31 1 26.1 37 68,989 0 0 1.63 8.76 71.6 7.89 3.71 8.83 9.71
12:30 2 26.1 38 68,985 0 3.13 1.56 10.82 105.46 7.94 2.86 8.75 9.63
12:29 1 26 38 68,983 0 1.06 1.55 10.2 91.31 7.56 2 7.99 8.78
12:28 1 26 38 68,951 0 3.24 1.81 13.06 102.72 8.21 2.86 8.75 9.62
12:27 2 26 38 68,943 0 0 1.84 10.2 92.68 8.1 2.86 8.77 9.65
12:26 1 26 38 68,935 0 0 1.9 9.92 89.71 8.46 2.86 9.55 10.51
12:25 1 26 37 68,951 0 0.69 1.92 10.3 101.53 8.48 2.86 8.03 8.83
12:24 1 26 37 68,971 0 0 1.67 10.41 81.91 7.27 2 8.01 8.81
12:23 1 26 38 68,971 0 0 1.51 10.26 103.37 8.67 2.86 8.71 9.59